Location: Brno
(49.2000°N, 16.6330°E)
Time: 22:26:28
(UTC+02:00)

Cosmos 332 Rocket - Visible Passes

Search period start: 20 August 2014 00:00
Search period end: 30 August 2014 00:00
Orbit: 685 x 706 km, 74.0° (Epoch: 20 August)

Date Brightness Start Highest point End Pass type
(mag) Time Alt. Az. Time Alt. Az. Time Alt. Az.
20 Aug 7.2 04:43:54 10° NNE 04:45:44 12° NE 04:47:35 10° ENE visible
20 Aug 3.8 20:50:22 10° S 20:55:05 59° ESE 20:59:49 10° NNE visible
20 Aug 6.2 22:32:11 10° WSW 22:35:59 23° NW 22:39:48 10° N visible
21 Aug 4.8 21:32:19 10° SW 21:36:58 50° WNW 21:41:40 10° NNE visible
21 Aug 7.2 23:17:53 10° NW 23:18:43 10° NW 23:19:33 10° NNW visible
22 Aug 7.1 04:26:49 10° NNE 04:29:06 13° NE 04:31:22 10° ENE visible
22 Aug 3.8 20:33:33 10° S 20:38:18 67° ESE 20:43:05 10° NNE visible
22 Aug 6.5 22:15:41 10° W 22:19:18 21° NW 22:22:56 10° N visible
23 Aug 6.2 05:07:29 10° N 05:11:41 29° NE 05:15:53 10° ESE visible
23 Aug 5.1 21:15:39 10° SW 21:20:14 44° WNW 21:24:52 10° NNE visible
24 Aug 7.1 04:09:49 10° N 04:12:26 14° NE 04:15:04 10° ENE visible
24 Aug 6.7 21:59:13 10° W 22:02:37 19° NW 22:06:03 10° N visible
25 Aug 5.9 04:50:39 10° N 04:54:59 32° NE 04:59:19 10° ESE visible
25 Aug 5.3 20:59:00 10° SW 21:03:31 40° WNW 21:08:03 10° NNE visible
26 Aug 7.0 03:52:51 10° N 03:55:47 16° NE 03:58:42 10° E visible
26 Aug 6.9 21:42:46 10° W 21:45:57 17° NW 21:49:08 10° N visible
27 Aug 5.6 04:33:49 10° N 04:38:16 35° ENE 04:42:43 10° SE visible
27 Aug 5.6 20:42:22 10° SW 20:46:47 36° WNW 20:51:14 10° N visible
28 Aug 6.8 03:35:55 10° N 03:39:07 17° NE 03:42:18 10° E visible
28 Aug 3.8 05:15:27 10° NNW 05:20:19 87° WSW 05:25:10 10° SSE visible
28 Aug 7.0 21:26:21 10° W 21:29:16 16° NW 21:32:13 10° N visible
29 Aug 5.3 04:17:00 10° N 04:21:33 39° ENE 04:26:06 10° SE visible
29 Aug 5.9 20:25:46 10° WSW 20:30:04 32° NW 20:34:25 10° N visible
